Weather History for Alabaster, AL

Change the Weather History Date:

Friday, December 28, 2012

  Actual Average Record
Temperature  
Mean Temperature 41 °F 44 °F  
Max Temperature 49 °F 54 °F 74 °F (1964)
Min Temperature 33 °F 35 °F 18 °F (1963)
Degree Days  
Heating Degree Days 24 21  
Month to date heating degree days 331 514  
Since 1 July heating degree days 817 958  
Moisture  
Dew Point 38 °F    
Average Humidity 74    
Maximum Humidity 92    
Minimum Humidity 56    
Precipitation  
Precipitation 0.68 in 0.16 in 2.82 in (1983)
Month to date precipitation 7.74 4.35  
Year to date precipitation 55.69 54.23  
Snow  
Snow 0.00 in - - ()
Month to date snowfall 0.0  
Since 1 July snowfall 0.0  
Snow Depth 0.00 in    
Sea Level Pressure  
Sea Level Pressure 29.93 in    
Wind  
Wind Speed 2 mph (ESE)    
Max Wind Speed 13 mph    
Max Gust Speed 20 mph    
Visibility 6 miles    
Events Rain    
T = Trace of Precipitation, MM = Missing Value Source: NWS Daily Summary

Daily Weather History Graph

Daily Weather History Graph

Search for Another Location

Airport:

Trip Planner

Search our weather history database for the weather conditions in past years. The results will help you decide how hot, cold, wet, or windy it might be!

Date:

Astronomy

Dec. 28, 2012 Rise Set
Actual Time 6:49 AM CST 4:48 PM CST
Civil Twilight 6:22 AM CST 5:15 PM CST
Nautical Twilight 5:51 AM CST 5:46 PM CST
Astronomical Twilight 5:21 AM CST 6:17 PM CST
Moon 5:21 PM CST (12/28) 6:46 AM CST (12/28)
Length of Visible Light 10h 53m
Length of Day
9h 58m
Full, 100% of the Moon is Illuminated
Dec 28
Full
Jan 4
Last Quarter
Jan 11
New
Jan 18
First Quarter
Jan 26
Full

Hourly Weather History & Observations

Time (CST) Temp. Windchill Dew Point Humidity Pressure Visibility Wind Dir Wind Speed Gust Speed Precip Events Conditions
12:53 AM 33.1 °F - 30.9 °F 92% 30.08 in 5.0 mi Calm Calm - N/A   Overcast
1:53 AM 34.0 °F - 30.0 °F 85% 30.08 in 7.0 mi Calm Calm - N/A   Mostly Cloudy
2:53 AM 34.0 °F - 30.0 °F 85% 30.09 in 7.0 mi Calm Calm - N/A   Overcast
3:53 AM 35.1 °F - 30.9 °F 85% 30.08 in 7.0 mi Calm Calm - N/A   Scattered Clouds
4:53 AM 34.0 °F - 30.9 °F 89% 30.07 in 5.0 mi Calm Calm - N/A   Clear
5:53 AM 34.0 °F - 30.0 °F 85% 30.07 in 7.0 mi Calm Calm - N/A   Clear
6:53 AM 35.1 °F - 30.0 °F 82% 30.07 in 7.0 mi Calm Calm - N/A   Overcast
7:53 AM 36.0 °F - 30.9 °F 82% 30.09 in 6.0 mi Calm Calm - N/A   Haze
8:53 AM 37.9 °F - 32.0 °F 79% 30.09 in 7.0 mi Calm Calm - N/A   Mostly Cloudy
9:53 AM 43.0 °F 38.8 °F 33.1 °F 68% 30.07 in 10.0 mi ESE 6.9 mph - N/A   Mostly Cloudy
10:53 AM 46.0 °F - 33.1 °F 61% 30.07 in 10.0 mi Calm Calm - N/A   Mostly Cloudy
12:53 PM 48.9 °F - 34.0 °F 56% 29.97 in 10.0 mi ENE 4.6 mph - N/A   Overcast
1:53 PM 48.9 °F - 34.0 °F 56% 29.94 in 10.0 mi East 4.6 mph - N/A   Mostly Cloudy
2:53 PM 48.9 °F - 36.0 °F 61% 29.91 in 10.0 mi Calm Calm - N/A   Overcast
3:53 PM 46.0 °F - 41.0 °F 83% 29.94 in 3.0 mi Calm Calm - 0.05 in Rain Light Rain
4:53 PM 45.0 °F - 41.0 °F 86% 29.90 in 7.0 mi Calm Calm - 0.07 in Rain Light Rain
5:53 PM 45.0 °F 42.6 °F 41.0 °F 86% 29.88 in 5.0 mi SE 4.6 mph - 0.07 in Rain Light Rain
6:29 PM 44.6 °F 40.7 °F 41.0 °F 87% 29.86 in 3.0 mi SE 6.9 mph - 0.09 in Rain Rain
7:11 PM 44.6 °F 40.7 °F 41.0 °F 87% 29.85 in 4.0 mi SE 6.9 mph - 0.03 in Rain Light Rain
7:53 PM 45.0 °F 40.1 °F 41.0 °F 86% 29.83 in 5.0 mi ESE 9.2 mph 19.6 mph 0.05 in Rain Light Rain
8:40 PM 44.6 °F 40.7 °F 41.0 °F 87% 29.84 in 2.0 mi Variable 6.9 mph - 0.10 in Rain Rain
8:48 PM 44.6 °F 43.1 °F 42.8 °F 93% 29.85 in 1.8 mi SE 3.5 mph - 0.16 in Rain Heavy Rain
8:53 PM 44.1 °F 40.1 °F 42.1 °F 93% 29.84 in 1.8 mi ESE 6.9 mph - 0.19 in Rain Heavy Rain
9:01 PM 44.6 °F 41.4 °F 42.8 °F 93% 29.84 in 2.5 mi ESE 5.8 mph - 0.02 in Rain Rain
9:24 PM 44.6 °F 40.7 °F 42.8 °F 93% 29.83 in 3.0 mi ESE 6.9 mph 17.3 mph 0.06 in Rain Light Rain
9:31 PM 44.6 °F 40.7 °F 42.8 °F 93% 29.85 in 4.0 mi SE 6.9 mph 17.3 mph 0.06 in Rain Light Rain
9:53 PM 44.1 °F 39.0 °F 42.1 °F 93% 29.83 in 3.0 mi SE 9.2 mph - 0.10 in Rain Rain
10:10 PM 44.6 °F 43.1 °F 42.8 °F 93% 29.83 in 4.0 mi Variable 3.5 mph - 0.02 in Rain Light Rain
10:21 PM 44.6 °F 40.2 °F 42.8 °F 93% 29.82 in 7.0 mi SE 8.1 mph - 0.02 in   Overcast
10:28 PM 44.6 °F 40.2 °F 42.8 °F 93% 29.83 in 7.0 mi SE 8.1 mph - 0.02 in   Overcast
10:41 PM 44.6 °F 43.1 °F 42.8 °F 93% 29.83 in 7.0 mi ESE 3.5 mph - 0.02 in   Overcast
10:53 PM 44.1 °F 41.5 °F 42.1 °F 93% 29.83 in 7.0 mi ESE 4.6 mph - 0.02 in   Overcast
11:53 PM 44.1 °F - 42.1 °F 93% 29.82 in 6.0 mi Calm Calm - N/A   Overcast